Location: Newark
(50.4348°N, 30.5552°E)
Time: 07:24:39
(UTC+00:00)

Vanguard 3 - Pass Details

Date: 23 January 2020
Orbit: 508 x 3263 km, 33.3° (Epoch: 20 February)

Event Time Altitude Azimuth Distance (km) Brightness Sun altitude
Rises 16:15:00 0° 231° (SW) 7,179 13.1 -15.7°
Reaches altitude 10° 16:20:24 10° 224° (SW) 6,198 12.4 -16.6°
Maximum altitude 16:37:04 37° 167° (SSE) 3,915 10.5 -19.2°
Enters shadow 16:46:57 18° 116° (ESE) 4,333 10.3 -20.8°
